Simultaneous Nadir Overpasses (SNOs) Predictions

Prediction of SNOs between METOP-A and TERRA Satellite Orbit:

Table of predicted SNOs for the next 14.0 days since TLE Epoch: 7/30/2016
Index Date (METOP-A) Time (METOP-A) Lat,Lon (METOP-A) SZA (METOP-A ) Date (TERRA) Time (TERRA) Lat,Lon (TERRA) SZA (TERRA ) Distance(km) Time Diff (sec)
1 07/31/2016 09:34:24 81.32, 84.03 65.97 07/31/2016 09:34:39 81.32, 83.90 65.95 2.53 15
2 07/31/2016 10:25:04 -81.33,-108.14 113.97 07/31/2016 10:24:05 -81.34,-108.10 113.99 0.84 59
3 08/03/2016 05:08:44 81.33, 150.53 66.70 08/03/2016 05:08:51 81.33, 150.68 66.73 2.69 7
4 08/03/2016 05:59:24 -81.33, -41.61 113.23 08/03/2016 05:58:18 -81.33, -41.68 113.27 1.14 66
5 08/05/2016 23:52:26 -81.32, 49.24 112.59 08/05/2016 23:53:39 -81.33, 49.41 112.53 3.08 73
6 08/06/2016 00:43:05 81.33,-142.99 67.47 08/06/2016 00:43:05 81.33,-142.95 67.48 0.70 0
7 08/06/2016 01:33:45 -81.33, 24.90 112.45 08/06/2016 01:32:32 -81.33, 24.71 112.51 3.24 73
8 08/08/2016 19:26:47 -81.32, 115.74 111.79 08/08/2016 19:27:53 -81.33, 115.76 111.75 0.55 66
9 08/08/2016 20:17:26 81.33, -76.51 68.28 08/08/2016 20:17:19 81.32, -76.61 68.26 1.74 7
10 08/11/2016 15:01:07 -81.32,-177.78 110.94 08/11/2016 15:02:06 -81.32,-177.92 110.93 2.41 59




NCC Satellite Simultaneous Nadir Overpasses (SNOs) Prediction Service
